FW6366 Weather Reports


Display with metric or nautical units.
time (UTC)temp
F
wind
direction
speed
MPH
gust
MPH
rain 1hr
in
rain 24hr
in
rain mn
in
humidity
%
barometer
mb
20260503013102 40 0 0.0 3.0 0.00 0.33 0.33 90 1012.7
20260503012600 41 307 2.0 3.0 0.00 0.33 0.33 89 1012.7
20260503012100 41 300 1.0 2.0 0.00 0.33 0.33 89 1012.7
20260503011605 41 298 1.0 2.0 0.00 0.33 0.33 88 1012.7
20260503011100 41 297 1.0 2.0 0.00 0.33 0.33 88 1012.7
20260503010559 42 302 0.0 2.0 0.00 0.33 0.33 87 1012.7
20260503005559 43 0 0.0 1.0 0.00 0.33 0.33 87 1012.6
20260503005059 43 0 0.0 2.0 0.00 0.33 0.33 87 1012.5
20260503004559 43 0 0.0 2.0 0.00 0.33 0.33 87 1012.4
20260503004102 43 294 0.0 2.0 0.00 0.33 0.33 87 1012.4
20260503003558 43 0 0.0 3.0 0.00 0.33 0.33 87 1012.3
20260503003101 43 313 0.0 3.0 0.00 0.33 0.33 87 1012.4
20260503002601 43 23 0.0 3.0 0.00 0.33 0.33 86 1012.4
20260503002101 43 0 0.0 4.0 0.00 0.33 0.33 86 1012.3
20260503001620 43 349 0.0 6.0 0.00 0.33 0.33 85 1012.2
20260503001104 44 2 1.0 6.0 0.00 0.33 0.33 86 1012.1
20260503000558 44 323 1.0 5.0 0.00 0.33 0.33 85 1012.0
20260503000121 44 5 1.0 5.0 0.00 0.33 0.33 85 1012.1
20260502235558 44 0 1.0 9.0 0.00 0.33 0.33 86 1011.9
20260502235059 45 349 1.0 9.0 0.00 0.33 0.33 85 1011.9
20260502234617 45 43 1.0 7.0 0.00 0.33 0.33 85 1011.8
20260502234059 45 28 2.0 8.0 0.00 0.33 0.33 83 1011.7
20260502233602 45 52 4.0 8.0 0.00 0.33 0.33 82 1011.6
20260502233111 45 60 0.0 4.0 0.00 0.33 0.33 83 1011.7
20260502232558 46 0 0.0 7.0 0.00 0.33 0.33 81 1011.6
20260502232058 45 2 2.0 7.0 0.00 0.33 0.33 81 1011.5
20260502231613 46 328 0.0 7.0 0.00 0.33 0.33 82 1011.6
20260502231058 46 0 1.0 7.0 0.00 0.33 0.33 81 1011.4
20260502230559 46 0 0.0 4.0 0.00 0.33 0.33 78 1011.3
20260502225558 47 315 0.0 6.0 0.00 0.33 0.33 79 1011.3
20260502225058 47 23 2.0 7.0 0.00 0.33 0.33 75 1011.3
20260502224559 47 7 1.0 10.0 0.00 0.33 0.33 75 1011.1
20260502224058 47 348 2.0 11.0 0.00 0.33 0.33 74 1010.9
20260502223559 48 24 3.0 13.0 0.00 0.33 0.33 74 1010.9
20260502223059 48 5 3.0 13.0 0.00 0.33 0.33 74 1010.7
20260502222601 48 349 3.0 13.0 0.00 0.33 0.33 75 1010.8
20260502222058 48 23 3.0 8.0 0.00 0.33 0.33 76 1010.6
20260502221605 47 0 3.0 8.0 0.00 0.33 0.33 75 1010.4
20260502221101 47 309 1.0 3.0 0.00 0.33 0.33 79 1010.2
20260502220559 48 317 1.0 3.0 0.00 0.33 0.33 78 1010.1
20260502220106 48 319 2.0 3.0 0.00 0.33 0.33 76 1010.0
20260502215602 49 0 0.0 6.0 0.00 0.33 0.33 78 1010.1
20260502215101 50 0 0.0 6.0 0.00 0.33 0.33 70 1010.1
20260502214607 49 178 1.0 6.0 0.00 0.33 0.33 78 1010.1
20260502214059 49 2 2.0 6.0 0.00 0.33 0.33 78 1010.1
20260502213602 48 316 1.0 3.0 0.00 0.33 0.33 82 1010.1
20260502213101 49 0 0.0 3.0 0.00 0.33 0.33 82 1010.1
20260502212601 48 61 0.0 3.0 0.00 0.33 0.33 83 1010.1
20260502212059 48 303 0.0 6.0 0.00 0.33 0.33 85 1010.0
20260502211607 48 0 2.0 6.0 0.00 0.33 0.33 87 1010.1
20260502211059 48 9 2.0 4.0 0.00 0.33 0.33 87 1010.1
20260502210557 49 0 0.0 3.0 0.00 0.33 0.33 87 1010.1
20260502210109 49 271 0.0 3.0 0.00 0.33 0.33 87 1010.0
20260502205601 48 250 0.0 2.0 0.00 0.33 0.33 88 1009.9
20260502205058 49 248 1.0 3.0 0.00 0.33 0.33 88 1009.9
20260502204604 48 0 1.0 3.0 0.00 0.33 0.33 88 1009.9
20260502204058 49 250 0.0 3.0 0.00 0.33 0.33 86 1009.9
20260502203559 50 309 0.0 2.0 0.00 0.33 0.33 82 1010.0
20260502203113 49 0 0.0 4.0 0.00 0.33 0.33 79 1010.1
20260502202558 49 55 0.0 4.0 0.00 0.33 0.33 82 1010.1
20260502202058 49 329 1.0 2.0 0.00 0.33 0.33 87 1010.1
20260502201600 49 0 0.0 7.0 0.00 0.33 0.33 84 1010.1
20260502201058 49 0 0.0 7.0 0.00 0.33 0.33 79 1010.2
20260502200600 50 46 3.0 8.0 0.00 0.33 0.33 78 1010.1
20260502200100 50 47 3.0 8.0 0.00 0.33 0.33 77 1010.2
20260502195602 51 68 1.0 8.0 0.00 0.33 0.33 80 1010.3
20260502195059 50 43 4.0 9.0 0.00 0.33 0.33 78 1010.3
20260502194559 50 53 4.0 10.0 0.00 0.33 0.33 80 1010.4
20260502194104 50 56 4.0 10.0 0.00 0.33 0.33 81 1010.6
20260502193602 49 73 6.0 10.0 0.00 0.33 0.33 82 1010.7
20260502193100 49 58 1.0 6.0 0.00 0.33 0.33 85 1010.7
20260502192602 49 345 2.0 7.0 0.00 0.33 0.33 83 1010.8
20260502192101 49 44 3.0 7.0 0.00 0.33 0.33 82 1010.8
20260502191601 50 41 2.0 7.0 0.00 0.33 0.33 83 1010.8
20260502191101 49 50 0.0 4.0 0.00 0.33 0.33 83 1010.9
20260502190601 48 0 0.0 4.0 0.00 0.33 0.33 81 1010.9
20260502190101 48 46 0.0 3.0 0.00 0.33 0.33 84 1010.9
20260502185601 48 292 0.0 5.0 0.00 0.33 0.33 85 1011.1
20260502185058 48 0 2.0 5.0 0.00 0.33 0.33 82 1011.0
20260502184601 49 15 0.0 3.0 0.01 0.33 0.33 84 1011.2
20260502184058 48 95 0.0 5.0 0.01 0.33 0.33 84 1011.4
20260502183559 47 68 0.0 6.0 0.01 0.33 0.33 83 1011.5
20260502183101 48 72 2.0 6.0 0.02 0.33 0.33 82 1011.5
20260502182600 48 360 2.0 6.0 0.02 0.33 0.33 83 1011.6
20260502182057 48 342 2.0 7.0 0.02 0.33 0.33 87 1011.6
20260502181557 47 0 2.0 7.0 0.02 0.33 0.33 87 1011.7
20260502181101 46 51 2.0 8.0 0.02 0.33 0.33 88 1011.8
20260502180601 46 77 4.0 8.0 0.02 0.33 0.33 91 1012.0
20260502164057 45 177 0.0 3.0 0.03 0.31 0.31 89 1011.8
20260502163558 46 0 0.0 5.0 0.03 0.31 0.31 90 1011.8
20260502163105 45 0 0.0 5.0 0.03 0.31 0.31 89 1011.7
20260502162601 46 360 1.0 5.0 0.03 0.31 0.31 89 1011.8
20260502162101 46 0 0.0 1.0 0.02 0.30 0.30 90 1011.9
20260502161601 46 0 0.0 1.0 0.02 0.30 0.30 89 1011.7
20260502161059 45 0 0.0 3.0 0.02 0.30 0.30 89 1011.7
20260502160558 45 0 0.0 4.0 0.02 0.30 0.30 90 1011.7
20260502160104 45 0 0.0 7.0 0.01 0.29 0.29 89 1011.7
20260502152059 46 0 0.0 4.0 0.00 0.28 0.28 91 1011.6
20260502151611 46 0 0.0 4.0 0.00 0.28 0.28 91 1011.7
20260502151102 46 332 1.0 4.0 0.00 0.28 0.28 90 1011.6
20260502150601 47 0 1.0 7.0 0.00 0.28 0.28 91 1011.6
20260502150112 47 0 2.0 7.0 0.00 0.28 0.28 92 1011.5
20260502130601 45 0 0.0 1.0 0.12 0.27 0.27 95 1011.9
20260502123557 44 48 0.0 1.0 0.01 0.16 0.16 95 1011.7
20260502123102 44 0 0.0 2.0 0.00 0.15 0.15 95 1011.7
20260502122559 45 57 0.0 3.0 0.00 0.15 0.15 96 1011.7
20260502122100 44 0 0.0 3.0 0.00 0.15 0.15 95 1011.6
20260502121608 44 49 0.0 2.0 0.00 0.15 0.15 96 1011.6
20260502121101 44 0 0.0 2.0 0.00 0.15 0.15 96 1011.6
20260502120559 44 186 0.0 2.0 0.00 0.15 0.15 96 1011.5
20260502120114 44 0 0.0 2.0 0.00 0.15 0.15 96 1011.6
20260502115600 44 0 0.0 2.0 0.00 0.15 0.15 96 1011.5
20260502115101 44 160 0.0 4.0 0.00 0.15 0.15 96 1011.6
20260502114603 44 169 0.0 4.0 0.00 0.15 0.15 96 1011.5
20260502114059 43 165 1.0 3.0 0.00 0.15 0.15 96 1011.5
20260502113558 43 166 1.0 3.0 0.00 0.15 0.15 96 1011.5
20260502113100 43 169 0.0 2.0 0.00 0.15 0.15 96 1011.6
20260502112558 43 214 0.0 2.0 0.00 0.15 0.15 96 1011.7
20260502112059 43 203 0.0 2.0 0.00 0.15 0.15 96 1011.8
20260502111603 43 0 0.0 3.0 0.00 0.15 0.15 96 1011.8
20260502111100 43 188 0.0 3.0 0.01 0.15 0.15 96 1011.7
20260502110600 43 175 0.0 3.0 0.01 0.15 0.15 96 1011.6
20260502105600 42 0 0.0 1.0 0.01 0.15 0.15 96 1011.6
20260502105102 42 0 0.0 0.0 0.01 0.15 0.15 96 1011.6
20260502104600 42 0 0.0 0.0 0.01 0.15 0.15 96 1011.5
20260502104057 42 0 0.0 0.0 0.02 0.15 0.15 96 1011.6
20260502103601 42 0 0.0 0.0 0.02 0.15 0.15 96 1011.6
20260502103114 42 0 0.0 0.0 0.02 0.15 0.15 95 1011.6
20260502102558 42 0 0.0 0.0 0.02 0.15 0.15 95 1011.5
20260502102101 42 0 0.0 0.0 0.03 0.15 0.15 95 1011.4
20260502101601 42 0 0.0 0.0 0.04 0.15 0.15 96 1011.4
20260502101100 42 0 0.0 0.0 0.04 0.14 0.14 96 1011.3
20260502100558 42 0 0.0 1.0 0.04 0.14 0.14 96 1011.3
20260502100126 42 0 0.0 1.0 0.04 0.14 0.14 95 1011.2
20260502091058 42 0 0.0 2.0 0.02 0.10 0.10 95 1011.5
20260502090558 42 0 0.0 2.0 0.03 0.10 0.10 95 1011.6
20260502090116 42 0 0.0 2.0 0.03 0.10 0.10 95 1011.5
20260502080105 42 0 0.0 0.0 0.02 0.07 0.07 94 1011.7
20260502071059 42 0 0.0 2.0 0.02 0.05 0.05 93 1011.8
20260502070602 42 298 0.0 1.0 0.02 0.05 0.05 93 1011.7
20260502070100 42 0 0.0 0.0 0.02 0.05 0.05 93 1011.6
20260502065559 42 0 0.0 0.0 0.01 0.04 0.04 93 1011.9
20260502065101 42 0 0.0 0.0 0.02 0.04 0.04 93 1012.0
20260502064609 42 0 0.0 0.0 0.02 0.04 0.04 93 1012.0
20260502064058 42 0 0.0 0.0 0.02 0.04 0.04 93 1012.0
20260502063558 43 0 0.0 0.0 0.02 0.04 0.04 93 1011.9
20260502063059 43 0 0.0 1.0 0.01 0.03 0.03 93 1011.9
20260502062600 43 0 0.0 1.0 0.01 0.03 0.03 93 1011.9
20260502062101 43 0 0.0 3.0 0.01 0.03 0.03 92 1012.0
20260502061600 43 0 1.0 3.0 0.01 0.03 0.03 92 1012.0
20260502061057 43 0 1.0 3.0 0.01 0.03 0.03 92 1012.0
20260502060601 43 246 0.0 2.0 0.02 0.03 0.03 92 1012.1
20260502060101 43 277 0.0 1.0 0.02 0.03 0.03 92 1012.1
20260502055602 43 0 0.0 1.0 0.02 0.03 0.03 92 1012.1
20260502055102 43 0 0.0 1.0 0.01 0.02 0.02 92 1012.2
20260502054559 43 231 0.0 2.0 0.02 0.02 0.02 92 1012.1
20260502054104 43 0 0.0 3.0 0.02 0.02 0.02 91 1012.2
20260502053603 44 0 0.0 4.0 0.02 0.02 0.02 90 1012.2
20260502053058 43 0 1.0 4.0 0.02 0.02 0.02 90 1012.1
20260502052559 44 259 1.0 3.0 0.02 0.02 0.02 90 1012.2
20260502052059 44 271 1.0 3.0 0.02 0.02 0.02 89 1012.2
20260502051659 44 271 0.0 3.0 0.02 0.02 0.02 89 1012.2
20260502051059 44 232 0.0 3.0 0.02 0.02 0.02 88 1012.1
20260502050559 44 238 1.0 3.0 0.01 0.01 0.01 88 1012.3
20260502050100 44 233 2.0 3.0 0.01 0.01 0.01 88 1012.3
20260502045558 44 262 1.0 2.0 0.01 0.01 0.01 88 1012.2
20260502045100 44 0 0.0 2.0 0.01 0.01 0.01 87 1012.3
20260502044608 45 0 0.0 2.0 0.00 0.00 0.00 86 1012.3
20260502044100 45 186 0.0 2.0 0.00 0.00 0.00 85 1012.2
20260502043600 45 0 0.0 2.0 0.00 0.00 0.00 84 1012.1
20260502043110 45 300 0.0 2.0 0.00 0.00 0.00 83 1012.1
20260502042603 46 279 0.0 2.0 0.00 0.00 0.00 82 1012.0
20260502042100 46 290 1.0 2.0 0.00 0.00 0.00 81 1012.1
20260502041604 46 0 0.0 2.0 0.00 0.00 0.00 80 1012.0
20260502041102 46 303 0.0 1.0 0.00 0.00 0.00 81 1012.0
20260502040559 46 0 0.0 1.0 0.00 0.00 0.00 80 1011.9
20260502040057 46 0 0.0 2.0 0.00 0.00 0.00 80 1011.9
20260502035559 46 0 0.0 2.0 0.00 0.00 0.00 79 1011.9
20260502035100 46 295 1.0 2.0 0.00 0.00 0.00 78 1011.9
20260502034600 46 306 1.0 3.0 0.00 0.00 0.00 77 1011.8
20260502034058 46 307 1.0 3.0 0.00 0.00 0.00 78 1011.9
20260502033557 46 309 1.0 3.0 0.00 0.00 0.00 79 1012.0
20260502033101 46 301 0.0 3.0 0.00 0.00 0.00 78 1011.9
20260502032600 46 0 0.0 2.0 0.00 0.00 0.00 79 1011.9
20260502032101 45 321 0.0 2.0 0.00 0.00 0.00 80 1011.8
20260502031611 45 0 0.0 2.0 0.00 0.00 0.00 79 1011.8
20260502031101 45 0 0.0 2.0 0.00 0.00 0.00 79 1011.9
20260502030603 45 0 0.0 2.0 0.00 0.00 0.00 78 1011.9
20260502030101 45 0 0.0 1.0 0.00 0.00 0.00 77 1011.8
20260502025600 45 0 0.0 1.0 0.00 0.03 0.00 79 1011.6
20260502025058 45 0 0.0 1.0 0.00 0.03 0.00 79 1011.7
20260502024600 45 0 0.0 1.0 0.00 0.03 0.00 78 1011.6
20260502024059 45 0 0.0 1.0 0.00 0.03 0.00 78 1011.6
20260502023559 45 0 0.0 1.0 0.00 0.03 0.00 79 1011.7
20260502023102 44 285 0.0 1.0 0.00 0.03 0.00 79 1011.6
20260502022557 45 0 0.0 1.0 0.00 0.03 0.00 78 1011.5
20260502022101 45 0 0.0 1.0 0.00 0.03 0.00 78 1011.6
20260502021601 45 0 0.0 1.0 0.00 0.03 0.00 78 1011.4
20260502021101 45 0 0.0 1.0 0.00 0.03 0.00 78 1011.4
20260502020600 45 304 0.0 2.0 0.00 0.03 0.00 76 1011.5
20260502020313 45 293 0.0 2.0 0.00 0.03 0.00 75 1011.5
20260502020109 45 293 0.0 2.0 0.00 0.03 0.00 75 1011.5
20260502015602 45 0 0.0 2.0 0.00 0.04 0.00 77 1011.5
20260502015102 45 23 0.0 2.0 0.00 0.04 0.00 77 1011.5
20260502014559 46 0 0.0 1.0 0.00 0.04 0.00 77 1011.5
20260502014058 46 0 0.0 1.0 0.00 0.04 0.00 76 1011.4
20260502013601 47 0 0.0 1.0 0.00 0.04 0.00 77 1011.5